| time (UTC) | temp C | wind direction | speed KPH | gust KPH | rain 1hr cm | rain 24hr cm | rain mn cm | humidity % | barometer mb |
| 20260901201524 | 17 | 112 | 0.0 | 1.6 | 0.00 | 0.48 | 0.48 | 93 | 1010.0 |
| 20260901200036 | 17 | 57 | 0.0 | 0.0 | 0.00 | 0.48 | 0.48 | 94 | 1010.1 |
| 20260901194522 | 16 | 191 | 0.0 | 0.0 | 0.00 | 0.48 | 0.48 | 94 | 1010.4 |
| 20260901193117 | 16 | 191 | 0.0 | 0.0 | 0.03 | 0.48 | 0.48 | 95 | 1010.4 |
| 20260901191516 | 16 | 274 | 0.0 | 0.0 | 0.08 | 0.48 | 0.48 | 95 | 1010.4 |
| 20260901190021 | 15 | 208 | 0.0 | 0.0 | 0.08 | 0.48 | 0.48 | 96 | 1010.3 |
| 20260901184518 | 15 | 234 | 0.0 | 0.0 | 0.15 | 0.48 | 0.48 | 95 | 1010.4 |
| 20260901183031 | 15 | 229 | 0.0 | 9.7 | 0.13 | 0.46 | 0.46 | 95 | 1010.4 |
| 20260901181506 | 15 | 191 | 0.0 | 0.0 | 0.08 | 0.41 | 0.41 | 96 | 1010.3 |
| 20260901180003 | 15 | 190 | 0.0 | 0.0 | 0.10 | 0.41 | 0.41 | 95 | 1010.0 |
| 20260901174603 | 15 | 191 | 0.0 | 0.0 | 0.03 | 0.33 | 0.33 | 95 | 1010.1 |
| 20260901173108 | 15 | 191 | 0.0 | 0.0 | 0.03 | 0.33 | 0.33 | 96 | 1009.9 |
| 20260901171552 | 15 | 191 | 0.0 | 0.0 | 0.03 | 0.33 | 0.33 | 95 | 1009.7 |
| 20260901170048 | 15 | 190 | 0.0 | 0.0 | 0.03 | 0.30 | 0.30 | 95 | 1009.6 |
| 20260901164552 | 15 | 190 | 0.0 | 0.0 | 0.03 | 0.30 | 0.30 | 95 | 1009.6 |
| 20260901163042 | 15 | 191 | 0.0 | 0.0 | 0.05 | 0.30 | 0.30 | 95 | 1009.6 |
| 20260901161540 | 14 | 190 | 0.0 | 0.0 | 0.10 | 0.30 | 0.30 | 95 | 1009.5 |
| 20260901160043 | 14 | 190 | 0.0 | 0.0 | 0.15 | 0.28 | 0.28 | 95 | 1009.4 |
| 20260901154541 | 14 | 344 | 0.0 | 0.0 | 0.28 | 0.28 | 0.28 | 95 | 1009.3 |
| 20260901153040 | 14 | 345 | 0.0 | 0.0 | 0.25 | 0.25 | 0.25 | 95 | 1009.2 |
| 20260901151536 | 14 | 344 | 0.0 | 0.0 | 0.20 | 0.20 | 0.20 | 95 | 1009.2 |
| 20260901150033 | 14 | 345 | 0.0 | 0.0 | 0.13 | 0.13 | 0.13 | 95 | 1009.0 |
| 20260901144537 | 14 | 344 | 0.0 | 0.0 | 0.00 | 0.00 | 0.00 | 95 | 1008.8 |
| 20260901143030 | 14 | 345 | 0.0 | 0.0 | 0.00 | 0.00 | 0.00 | 95 | 1008.6 |
| 20260901141527 | 14 | 344 | 0.0 | 0.0 | 0.00 | 0.00 | 0.00 | 95 | 1008.3 |
| 20260901140031 | 14 | 17 | 0.0 | 0.0 | 0.00 | 0.00 | 0.00 | 95 | 1008.1 |
| 20260901134526 | 14 | 76 | 0.0 | 0.0 | 0.00 | 0.00 | 0.00 | 95 | 1007.9 |
| 20260901133037 | 14 | 76 | 0.0 | 0.0 | 0.00 | 0.00 | 0.00 | 95 | 1008.0 |
| 20260901131628 | 14 | 76 | 0.0 | 0.0 | 0.00 | 0.00 | 0.00 | 95 | 1007.9 |
| 20260901130022 | 14 | 76 | 0.0 | 0.0 | 0.00 | 0.00 | 0.00 | 95 | 1007.8 |
| 20260901124522 | 14 | 76 | 0.0 | 0.0 | 0.00 | 0.00 | 0.00 | 94 | 1008.0 |
| 20260901123021 | 14 | 76 | 0.0 | 0.0 | 0.00 | 0.00 | 0.00 | 94 | 1007.9 |
| 20260901121521 | 14 | 76 | 0.0 | 0.0 | 0.00 | 0.00 | 0.00 | 94 | 1007.8 |
| 20260901120020 | 14 | 76 | 0.0 | 0.0 | 0.00 | 0.00 | 0.00 | 94 | 1007.8 |
| 20260901114519 | 14 | 76 | 0.0 | 0.0 | 0.00 | 0.00 | 0.00 | 94 | 1007.8 |
| 20260901113020 | 14 | 76 | 0.0 | 0.0 | 0.00 | 0.00 | 0.00 | 94 | 1007.8 |
| 20260901111518 | 14 | 76 | 0.0 | 0.0 | 0.00 | 0.00 | 0.00 | 94 | 1007.8 |
| 20260901110033 | 14 | 76 | 0.0 | 0.0 | 0.00 | 0.00 | 0.00 | 94 | 1007.7 |
| 20260901104517 | 14 | 192 | 0.0 | 0.0 | 0.00 | 0.03 | 0.00 | 94 | 1008.0 |
| 20260901103015 | 14 | 192 | 0.0 | 0.0 | 0.00 | 0.03 | 0.00 | 94 | 1008.1 |
| 20260901101514 | 14 | 192 | 0.0 | 0.0 | 0.00 | 0.03 | 0.00 | 94 | 1008.1 |
| 20260901100014 | 14 | 192 | 0.0 | 0.0 | 0.00 | 0.03 | 0.00 | 94 | 1008.2 |
| 20260901094521 | 14 | 192 | 0.0 | 0.0 | 0.00 | 0.03 | 0.00 | 93 | 1008.0 |
| 20260901093012 | 14 | 192 | 0.0 | 0.0 | 0.00 | 0.03 | 0.00 | 93 | 1007.9 |
| 20260901091510 | 14 | 308 | 0.0 | 0.0 | 0.00 | 0.03 | 0.00 | 93 | 1008.0 |
| 20260901090013 | 14 | 308 | 0.0 | 0.0 | 0.00 | 0.03 | 0.00 | 93 | 1007.9 |
| 20260901084508 | 14 | 308 | 0.0 | 0.0 | 0.00 | 0.03 | 0.00 | 92 | 1007.9 |
| 20260901083008 | 14 | 240 | 0.0 | 0.0 | 0.00 | 0.03 | 0.00 | 92 | 1007.9 |
| 20260901081511 | 14 | 240 | 0.0 | 0.0 | 0.00 | 0.03 | 0.00 | 92 | 1007.9 |
| 20260901080006 | 14 | 240 | 0.0 | 0.0 | 0.00 | 0.03 | 0.00 | 92 | 1007.8 |
| 20260901074506 | 14 | 240 | 0.0 | 0.0 | 0.00 | 0.03 | 0.00 | 92 | 1007.8 |
| 20260901073010 | 14 | 240 | 0.0 | 0.0 | 0.00 | 0.03 | 0.00 | 92 | 1008.0 |
| 20260901071503 | 14 | 240 | 0.0 | 0.0 | 0.00 | 0.03 | 0.00 | 92 | 1008.0 |
| 20260901070002 | 14 | 266 | 0.0 | 0.0 | 0.00 | 0.03 | 0.00 | 92 | 1007.9 |
| 20260901064601 | 14 | 340 | 0.0 | 0.0 | 0.00 | 0.03 | 0.03 | 92 | 1007.9 |
| 20260901063100 | 15 | 340 | 0.0 | 0.0 | 0.00 | 0.03 | 0.03 | 91 | 1008.0 |
| 20260901061603 | 15 | 340 | 0.0 | 0.0 | 0.00 | 0.03 | 0.03 | 91 | 1008.1 |
| 20260901060059 | 15 | 318 | 0.0 | 0.0 | 0.00 | 0.03 | 0.03 | 91 | 1008.2 |
| 20260901054558 | 15 | 315 | 0.0 | 0.0 | 0.00 | 0.03 | 0.03 | 90 | 1008.3 |
| 20260901053120 | 15 | 315 | 0.0 | 0.0 | 0.00 | 0.03 | 0.03 | 90 | 1008.4 |
| 20260901051557 | 15 | 315 | 0.0 | 0.0 | 0.00 | 0.03 | 0.03 | 89 | 1008.4 |
| 20260901050056 | 15 | 298 | 0.0 | 0.0 | 0.00 | 0.03 | 0.03 | 89 | 1008.4 |
| 20260901044555 | 15 | 279 | 0.0 | 0.0 | 0.00 | 0.03 | 0.03 | 88 | 1008.4 |
| 20260901043118 | 15 | 323 | 0.0 | 0.0 | 0.00 | 0.03 | 0.03 | 88 | 1008.3 |
| 20260901041606 | 15 | 250 | 0.0 | 0.0 | 0.00 | 0.03 | 0.03 | 87 | 1008.2 |
| 20260901034604 | 15 | 222 | 0.0 | 0.0 | 0.00 | 0.03 | 0.03 | 86 | 1008.1 |
| 20260901033104 | 15 | 268 | 0.0 | 0.0 | 0.00 | 0.03 | 0.03 | 85 | 1007.9 |
| 20260901031553 | 15 | 274 | 0.0 | 0.0 | 0.00 | 0.03 | 0.03 | 84 | 1007.8 |
| 20260901030052 | 15 | 333 | 0.0 | 0.0 | 0.00 | 0.03 | 0.03 | 83 | 1007.8 |
| 20260901024555 | 16 | 333 | 0.0 | 0.0 | 0.00 | 0.03 | 0.03 | 82 | 1007.6 |
| 20260901023051 | 16 | 333 | 0.0 | 0.0 | 0.00 | 0.03 | 0.03 | 81 | 1007.6 |
| 20260901021552 | 16 | 355 | 0.0 | 0.0 | 0.00 | 0.03 | 0.03 | 81 | 1007.4 |
| 20260901020050 | 16 | 21 | 0.0 | 6.4 | 0.00 | 0.03 | 0.03 | 81 | 1007.6 |
| 20260901014549 | 16 | 351 | 0.0 | 0.0 | 0.00 | 0.03 | 0.03 | 80 | 1007.6 |
| 20260901013049 | 16 | 17 | 0.0 | 0.0 | 0.00 | 0.03 | 0.03 | 80 | 1007.5 |
| 20260901011555 | 16 | 340 | 0.0 | 0.0 | 0.00 | 0.03 | 0.03 | 80 | 1007.6 |
| 20260901010048 | 16 | 316 | 0.0 | 0.0 | 0.00 | 0.03 | 0.03 | 79 | 1007.6 |
| 20260901004547 | 16 | 282 | 0.0 | 11.3 | 0.00 | 0.03 | 0.03 | 78 | 1007.5 |
| 20260901003055 | 16 | 360 | 0.0 | 6.4 | 0.00 | 0.03 | 0.03 | 78 | 1007.6 |
| 20260901001545 | 17 | 251 | 0.0 | 0.0 | 0.00 | 0.03 | 0.03 | 77 | 1007.5 |
| 20260901000045 | 17 | 317 | 0.0 | 0.0 | 0.00 | 0.03 | 0.03 | 76 | 1007.5 |
| 20260831234545 | 18 | 5 | 0.0 | 1.6 | 0.00 | 0.03 | 0.03 | 75 | 1007.5 |
| 20260831233044 | 17 | 332 | 0.0 | 0.0 | 0.00 | 0.03 | 0.03 | 75 | 1007.6 |
| 20260831231544 | 17 | 5 | 0.0 | 0.0 | 0.00 | 0.03 | 0.03 | 75 | 1007.7 |
| 20260831230044 | 17 | 22 | 0.0 | 0.0 | 0.00 | 0.03 | 0.03 | 73 | 1007.9 |
| 20260831224542 | 18 | 175 | 0.0 | 0.0 | 0.00 | 0.03 | 0.03 | 75 | 1007.9 |
| 20260831223043 | 18 | 270 | 0.0 | 0.0 | 0.00 | 0.03 | 0.03 | 74 | 1008.0 |
| 20260831221543 | 18 | 257 | 0.0 | 1.6 | 0.00 | 0.03 | 0.03 | 73 | 1008.0 |
| 20260831220045 | 19 | 346 | 0.0 | 0.0 | 0.00 | 0.03 | 0.03 | 71 | 1008.1 |
| 20260831214544 | 19 | 64 | 0.0 | 0.0 | 0.00 | 0.03 | 0.03 | 72 | 1008.1 |
| 20260831213043 | 18 | 360 | 0.0 | 6.4 | 0.00 | 0.03 | 0.03 | 72 | 1008.1 |
| 20260831211536 | 19 | 236 | 0.0 | 1.6 | 0.00 | 0.03 | 0.03 | 73 | 1008.1 |
| 20260831210038 | 19 | 360 | 0.0 | 0.0 | 0.00 | 0.03 | 0.03 | 74 | 1008.2 |
| 20260831204532 | 18 | 194 | 0.0 | 0.0 | 0.00 | 0.03 | 0.03 | 77 | 1008.2 |
| 20260831203047 | 18 | 338 | 0.0 | 0.0 | 0.00 | 0.03 | 0.03 | 78 | 1008.1 |